Year,Month,Day,Hour,Minute,Value (Times are PST for temperature in C)
2008,06,25,00,00,11.90
2008,06,25,00,01,11.90
2008,06,25,00,02,11.90
2008,06,25,00,03,11.90
2008,06,25,00,04,11.80
2008,06,25,00,05,11.80
2008,06,25,00,06,11.80
2008,06,25,00,07,11.80
2008,06,25,00,08,11.80
2008,06,25,00,09,11.80
2008,06,25,00,10,11.80
2008,06,25,00,11,11.80
2008,06,25,00,12,11.80
2008,06,25,00,13,11.80
2008,06,25,00,14,11.70
2008,06,25,00,15,11.70
2008,06,25,00,16,11.70
2008,06,25,00,17,11.70
2008,06,25,00,18,11.70
2008,06,25,00,19,11.70
2008,06,25,00,20,11.70
2008,06,25,00,21,11.70
2008,06,25,00,22,11.70
2008,06,25,00,23,11.70
2008,06,25,00,24,11.70
2008,06,25,00,25,11.60
2008,06,25,00,26,11.60
2008,06,25,00,27,11.60
2008,06,25,00,28,11.60
2008,06,25,00,29,11.60
2008,06,25,00,30,11.60
2008,06,25,00,31,11.60
2008,06,25,00,32,11.60
2008,06,25,00,33,11.60
2008,06,25,00,34,11.50
2008,06,25,00,35,11.50
2008,06,25,00,36,11.50
2008,06,25,00,37,11.40
2008,06,25,00,38,11.40
2008,06,25,00,39,11.40
2008,06,25,00,40,11.40
2008,06,25,00,41,11.40
2008,06,25,00,42,11.40
2008,06,25,00,43,11.40
2008,06,25,00,44,11.40
2008,06,25,00,45,11.30
2008,06,25,00,46,11.30
2008,06,25,00,47,11.30
2008,06,25,00,48,11.30
2008,06,25,00,49,11.30
2008,06,25,00,50,11.30
2008,06,25,00,51,11.30
2008,06,25,00,52,11.20
2008,06,25,00,53,11.20
2008,06,25,00,54,11.20
2008,06,25,00,55,11.20
2008,06,25,00,56,11.20
2008,06,25,00,57,11.20
2008,06,25,00,58,11.10
2008,06,25,00,59,11.10
2008,06,25,01,00,11.10
2008,06,25,01,01,11.10
2008,06,25,01,02,11.10
2008,06,25,01,03,11.10
2008,06,25,01,04,11.10
2008,06,25,01,05,11.00
2008,06,25,01,06,11.00
2008,06,25,01,07,11.00
2008,06,25,01,08,11.00
2008,06,25,01,09,10.90
2008,06,25,01,10,10.90
2008,06,25,01,11,10.90
2008,06,25,01,12,10.90
2008,06,25,01,13,10.90
2008,06,25,01,14,10.90
2008,06,25,01,15,10.90
2008,06,25,01,16,10.80
2008,06,25,01,17,10.80
2008,06,25,01,18,10.80
2008,06,25,01,19,10.80
2008,06,25,01,20,10.80
2008,06,25,01,21,10.80
2008,06,25,01,22,10.80
2008,06,25,01,23,10.80
2008,06,25,01,24,10.80
2008,06,25,01,25,10.80
2008,06,25,01,26,10.80
2008,06,25,01,27,10.80
2008,06,25,01,28,10.80
2008,06,25,01,29,10.80
2008,06,25,01,30,10.70
2008,06,25,01,31,10.70
2008,06,25,01,32,10.70
2008,06,25,01,33,10.70
2008,06,25,01,34,10.70
2008,06,25,01,35,10.70
2008,06,25,01,36,10.70
2008,06,25,01,37,10.70
2008,06,25,01,38,10.70
2008,06,25,01,39,10.70
2008,06,25,01,40,10.70
2008,06,25,01,41,10.70
2008,06,25,01,42,10.70
2008,06,25,01,43,10.60
2008,06,25,01,44,10.60
2008,06,25,01,45,10.60
2008,06,25,01,46,10.60
2008,06,25,01,47,10.60
2008,06,25,01,48,10.60
2008,06,25,01,49,10.50
2008,06,25,01,50,10.50
2008,06,25,01,51,10.50
2008,06,25,01,52,10.50
2008,06,25,01,53,10.40
2008,06,25,01,54,10.40
2008,06,25,01,55,10.40
2008,06,25,01,56,10.40
2008,06,25,01,57,10.40
2008,06,25,01,58,10.40
2008,06,25,01,59,10.40
2008,06,25,02,00,10.40
2008,06,25,02,01,10.40
2008,06,25,02,02,10.30
2008,06,25,02,03,10.30
2008,06,25,02,04,10.30
2008,06,25,02,05,10.30
2008,06,25,02,06,10.30
2008,06,25,02,07,10.30
2008,06,25,02,08,10.40
2008,06,25,02,09,10.40
2008,06,25,02,10,10.50
2008,06,25,02,11,10.60
2008,06,25,02,12,10.60
2008,06,25,02,13,10.70
2008,06,25,02,14,10.80
2008,06,25,02,15,10.90
2008,06,25,02,16,10.90
2008,06,25,02,17,11.00
2008,06,25,02,18,11.10
2008,06,25,02,19,11.10
2008,06,25,02,20,11.20
2008,06,25,02,21,11.20
2008,06,25,02,22,11.20
2008,06,25,02,23,11.30
2008,06,25,02,24,11.30
2008,06,25,02,25,11.40
2008,06,25,02,26,11.40
2008,06,25,02,27,11.40
2008,06,25,02,28,11.50
2008,06,25,02,29,11.60
2008,06,25,02,30,11.60
2008,06,25,02,31,11.60
2008,06,25,02,32,11.70
2008,06,25,02,33,11.70
2008,06,25,02,34,11.70
2008,06,25,02,35,11.70
2008,06,25,02,36,11.70
2008,06,25,02,37,11.80
2008,06,25,02,38,11.80
2008,06,25,02,39,11.80
2008,06,25,02,40,11.80
2008,06,25,02,41,11.90
2008,06,25,02,42,11.90
2008,06,25,02,43,11.90
2008,06,25,02,44,11.90
2008,06,25,02,45,12.00
2008,06,25,02,46,12.00
2008,06,25,02,47,12.00
2008,06,25,02,48,12.10
2008,06,25,02,49,12.10
2008,06,25,02,50,12.10
2008,06,25,02,51,12.10
2008,06,25,02,52,12.10
2008,06,25,02,53,12.10
2008,06,25,02,54,12.20
2008,06,25,02,55,12.20
2008,06,25,02,56,12.20
2008,06,25,02,57,12.20
2008,06,25,02,58,12.20
2008,06,25,02,59,12.20
2008,06,25,03,00,12.20
2008,06,25,03,01,12.20
2008,06,25,03,02,12.20
2008,06,25,03,03,12.20
2008,06,25,03,04,12.20
2008,06,25,03,05,12.20
2008,06,25,03,06,12.20
2008,06,25,03,07,12.20
2008,06,25,03,08,12.30
2008,06,25,03,09,12.30
2008,06,25,03,10,12.30
2008,06,25,03,11,12.30
2008,06,25,03,12,12.30
2008,06,25,03,13,12.30
2008,06,25,03,14,12.30
2008,06,25,03,15,12.30
2008,06,25,03,16,12.30
2008,06,25,03,17,12.30
2008,06,25,03,18,12.30
2008,06,25,03,19,12.30
2008,06,25,03,20,12.30
2008,06,25,03,21,12.30
2008,06,25,03,22,12.30
2008,06,25,03,23,12.30
2008,06,25,03,24,12.30
2008,06,25,03,25,12.30
2008,06,25,03,26,12.40
2008,06,25,03,27,12.40
2008,06,25,03,28,12.40
2008,06,25,03,29,12.40
2008,06,25,03,30,12.40
2008,06,25,03,31,12.40
2008,06,25,03,32,12.40
2008,06,25,03,33,12.40
2008,06,25,03,34,12.40
2008,06,25,03,35,12.40
2008,06,25,03,36,12.40
2008,06,25,03,37,12.40
2008,06,25,03,38,12.40
2008,06,25,03,39,12.40
2008,06,25,03,40,12.40
2008,06,25,03,41,12.40
2008,06,25,03,42,12.40
2008,06,25,03,43,12.40
2008,06,25,03,44,12.40
2008,06,25,03,45,12.40
2008,06,25,03,46,12.40
2008,06,25,03,47,12.40
2008,06,25,03,48,12.40
2008,06,25,03,49,12.40
2008,06,25,03,50,12.40
2008,06,25,03,51,12.30
2008,06,25,03,52,12.30
2008,06,25,03,53,12.30
2008,06,25,03,54,12.30
2008,06,25,03,55,12.30
2008,06,25,03,56,12.30
2008,06,25,03,57,12.20
2008,06,25,03,58,12.20
2008,06,25,03,59,12.20
2008,06,25,04,00,12.20
2008,06,25,04,01,12.20
2008,06,25,04,02,12.30
2008,06,25,04,03,12.30
2008,06,25,04,04,12.30
2008,06,25,04,05,12.30
2008,06,25,04,06,12.30
2008,06,25,04,07,12.30
2008,06,25,04,08,12.30
2008,06,25,04,09,12.30
2008,06,25,04,10,12.30
2008,06,25,04,11,12.30
2008,06,25,04,12,12.30
2008,06,25,04,13,12.30
2008,06,25,04,14,12.30
2008,06,25,04,15,12.30
2008,06,25,04,16,12.30
2008,06,25,04,17,12.40
2008,06,25,04,18,12.40
2008,06,25,04,19,12.40
2008,06,25,04,20,12.40
2008,06,25,04,21,12.40
2008,06,25,04,22,12.40
2008,06,25,04,23,12.40
2008,06,25,04,24,12.40
2008,06,25,04,25,12.40
2008,06,25,04,26,12.40
2008,06,25,04,27,12.40
2008,06,25,04,28,12.40
2008,06,25,04,29,12.40
2008,06,25,04,30,12.40
2008,06,25,04,31,12.40
2008,06,25,04,32,12.30
2008,06,25,04,33,12.30
2008,06,25,04,34,12.30
2008,06,25,04,35,12.30
2008,06,25,04,36,12.30
2008,06,25,04,37,12.30
2008,06,25,04,38,12.30
2008,06,25,04,39,12.30
2008,06,25,04,40,12.30
2008,06,25,04,41,12.30
2008,06,25,04,42,12.30
2008,06,25,04,43,12.30
2008,06,25,04,44,12.30
2008,06,25,04,45,12.30
2008,06,25,04,46,12.30
2008,06,25,04,47,12.30
2008,06,25,04,48,12.30
2008,06,25,04,49,12.20
2008,06,25,04,50,12.20
2008,06,25,04,51,12.20
2008,06,25,04,52,12.20
2008,06,25,04,53,12.20
2008,06,25,04,54,12.20
2008,06,25,04,55,12.20
2008,06,25,04,56,12.20
2008,06,25,04,57,12.20
2008,06,25,04,58,12.20
2008,06,25,04,59,12.20
2008,06,25,05,00,12.20
2008,06,25,05,01,12.20
2008,06,25,05,02,12.20
2008,06,25,05,03,12.20
2008,06,25,05,04,12.20
2008,06,25,05,05,12.20
2008,06,25,05,06,12.20
2008,06,25,05,07,12.20
2008,06,25,05,08,12.20
2008,06,25,05,09,12.20
2008,06,25,05,10,12.10
2008,06,25,05,11,12.10
2008,06,25,05,12,12.10
2008,06,25,05,13,12.10
2008,06,25,05,14,12.10
2008,06,25,05,15,12.10
2008,06,25,05,16,12.10
2008,06,25,05,17,12.10
2008,06,25,05,18,12.10
2008,06,25,05,19,12.10
2008,06,25,05,20,12.10
2008,06,25,05,21,12.10
2008,06,25,05,22,12.10
2008,06,25,05,23,12.10
2008,06,25,05,24,12.00
2008,06,25,05,25,12.00
2008,06,25,05,26,12.00
2008,06,25,05,27,11.90
2008,06,25,05,28,11.90
2008,06,25,05,29,11.90
2008,06,25,05,30,11.90
2008,06,25,05,31,12.00
2008,06,25,05,32,12.00
2008,06,25,05,33,12.00
2008,06,25,05,34,12.10
2008,06,25,05,35,12.10
2008,06,25,05,36,12.10
2008,06,25,05,37,12.10
2008,06,25,05,38,12.10
2008,06,25,05,39,12.10
2008,06,25,05,40,12.10
2008,06,25,05,41,12.10
2008,06,25,05,42,12.10
2008,06,25,05,43,12.10
2008,06,25,05,44,12.10
2008,06,25,05,45,12.10
2008,06,25,05,46,12.10
2008,06,25,05,47,12.10
2008,06,25,05,48,12.10
2008,06,25,05,49,12.10
2008,06,25,05,50,12.10
2008,06,25,05,51,12.10
2008,06,25,05,52,12.20
2008,06,25,05,53,12.20
2008,06,25,05,54,12.20
2008,06,25,05,55,12.20
2008,06,25,05,56,12.20
2008,06,25,05,57,12.20
2008,06,25,05,58,12.20
2008,06,25,05,59,12.20
2008,06,25,06,00,12.20
2008,06,25,06,01,12.20
2008,06,25,06,02,12.20
2008,06,25,06,03,12.20
2008,06,25,06,04,12.20
2008,06,25,06,05,12.20
2008,06,25,06,06,12.30
2008,06,25,06,07,12.30
2008,06,25,06,08,12.30
2008,06,25,06,09,12.30
2008,06,25,06,10,12.30
2008,06,25,06,11,12.30
2008,06,25,06,12,12.30
2008,06,25,06,13,12.30
2008,06,25,06,14,12.30
2008,06,25,06,15,12.30
2008,06,25,06,16,12.30
2008,06,25,06,17,12.40
2008,06,25,06,18,12.40
2008,06,25,06,19,12.40
2008,06,25,06,20,12.40
2008,06,25,06,21,12.40
2008,06,25,06,22,12.40
2008,06,25,06,23,12.40
2008,06,25,06,24,12.40
2008,06,25,06,25,12.40
2008,06,25,06,26,12.40
2008,06,25,06,27,12.40
2008,06,25,06,28,12.40
2008,06,25,06,29,12.40
2008,06,25,06,30,12.50
2008,06,25,06,31,12.50
2008,06,25,06,32,12.50
2008,06,25,06,33,12.50
2008,06,25,06,34,12.50
2008,06,25,06,35,12.50
2008,06,25,06,36,12.50
2008,06,25,06,37,12.50
2008,06,25,06,38,12.50
2008,06,25,06,39,12.60
2008,06,25,06,40,12.60
2008,06,25,06,41,12.60
2008,06,25,06,42,12.60
2008,06,25,06,43,12.60
2008,06,25,06,44,12.60
2008,06,25,06,45,12.60
2008,06,25,06,46,12.60
2008,06,25,06,47,12.60
2008,06,25,06,48,12.60
2008,06,25,06,49,12.60
2008,06,25,06,50,12.60
2008,06,25,06,51,12.60
2008,06,25,06,52,12.70
2008,06,25,06,53,12.70
2008,06,25,06,54,12.70
2008,06,25,06,55,12.70
2008,06,25,06,56,12.70
2008,06,25,06,57,12.70
2008,06,25,06,58,12.70
2008,06,25,06,59,12.70
2008,06,25,07,00,12.80
2008,06,25,07,01,12.80
2008,06,25,07,02,12.80
2008,06,25,07,03,12.80
2008,06,25,07,04,12.80
2008,06,25,07,05,12.80
2008,06,25,07,06,12.90
2008,06,25,07,07,12.90
2008,06,25,07,08,12.90
2008,06,25,07,09,12.90
2008,06,25,07,10,13.00
2008,06,25,07,11,13.00
2008,06,25,07,12,13.10
2008,06,25,07,13,13.10
2008,06,25,07,14,13.20
2008,06,25,07,15,13.20
2008,06,25,07,16,13.30
2008,06,25,07,17,13.30
2008,06,25,07,18,13.40
2008,06,25,07,19,13.40
2008,06,25,07,20,13.50
2008,06,25,07,21,13.50
2008,06,25,07,22,13.60
2008,06,25,07,23,13.60
2008,06,25,07,24,13.60
2008,06,25,07,25,13.70
2008,06,25,07,26,13.70
2008,06,25,07,27,13.70
2008,06,25,07,28,13.70
2008,06,25,07,29,13.80
2008,06,25,07,30,13.80
2008,06,25,07,31,13.80
2008,06,25,07,32,13.80
2008,06,25,07,33,13.80
2008,06,25,07,34,13.90
2008,06,25,07,35,13.90
2008,06,25,07,36,13.90
2008,06,25,07,37,13.90
2008,06,25,07,38,13.90
2008,06,25,07,39,13.90
2008,06,25,07,40,13.90
2008,06,25,07,41,13.90
2008,06,25,07,42,13.90
2008,06,25,07,43,13.90
2008,06,25,07,44,13.90
2008,06,25,07,45,13.90
2008,06,25,07,46,14.00
2008,06,25,07,47,14.00
2008,06,25,07,48,14.10
2008,06,25,07,49,14.10
2008,06,25,07,50,14.10
2008,06,25,07,51,14.10
2008,06,25,07,52,14.20
2008,06,25,07,53,14.20
2008,06,25,07,54,14.20
2008,06,25,07,55,14.30
2008,06,25,07,56,14.30
2008,06,25,07,57,14.30
2008,06,25,07,58,14.40
2008,06,25,07,59,14.40
2008,06,25,08,00,14.40
2008,06,25,08,01,14.40
2008,06,25,08,02,14.40
2008,06,25,08,03,14.40
2008,06,25,08,04,14.50
2008,06,25,08,05,14.50
2008,06,25,08,06,14.50
2008,06,25,08,07,14.50
2008,06,25,08,08,14.50
2008,06,25,08,09,14.50
2008,06,25,08,10,14.50
2008,06,25,08,11,14.50
2008,06,25,08,12,14.50
2008,06,25,08,13,14.60
2008,06,25,08,14,14.60
2008,06,25,08,15,14.60
2008,06,25,08,16,14.70
2008,06,25,08,17,14.70
2008,06,25,08,18,14.70
2008,06,25,08,19,14.70
2008,06,25,08,20,14.60
2008,06,25,08,21,14.70
2008,06,25,08,22,14.70
2008,06,25,08,23,14.70
2008,06,25,08,24,14.70
2008,06,25,08,25,14.70
2008,06,25,08,26,14.70
2008,06,25,08,27,14.70
2008,06,25,08,28,14.70
2008,06,25,08,29,14.70
2008,06,25,08,30,14.70
2008,06,25,08,31,14.70
2008,06,25,08,32,14.70
2008,06,25,08,33,14.80
2008,06,25,08,34,14.80
2008,06,25,08,35,14.80
2008,06,25,08,36,14.80
2008,06,25,08,37,14.80
2008,06,25,08,38,14.90
2008,06,25,08,39,14.90
2008,06,25,08,40,14.90
2008,06,25,08,41,14.90
2008,06,25,08,42,15.00
2008,06,25,08,43,15.00
2008,06,25,08,44,15.00
2008,06,25,08,45,15.00
2008,06,25,08,46,15.00
2008,06,25,08,47,15.00
2008,06,25,08,48,15.00
2008,06,25,08,49,15.00
2008,06,25,08,50,15.00
2008,06,25,08,51,15.00
2008,06,25,08,52,15.00
2008,06,25,08,53,15.00
2008,06,25,08,54,14.90
2008,06,25,08,55,14.80
2008,06,25,08,56,14.80
2008,06,25,08,57,14.80
2008,06,25,08,58,14.80
2008,06,25,08,59,14.80
2008,06,25,09,00,14.90
2008,06,25,09,01,14.90
2008,06,25,09,02,15.00
2008,06,25,09,03,15.00
2008,06,25,09,04,15.00
2008,06,25,09,05,15.00
2008,06,25,09,06,15.00
2008,06,25,09,07,15.00
2008,06,25,09,08,15.00
2008,06,25,09,09,15.20
2008,06,25,09,10,15.30
2008,06,25,09,11,15.30
2008,06,25,09,12,15.40
2008,06,25,09,13,15.40
2008,06,25,09,14,15.40
2008,06,25,09,15,15.40
2008,06,25,09,16,15.40
2008,06,25,09,17,15.30
2008,06,25,09,18,15.40
2008,06,25,09,19,15.40
2008,06,25,09,20,15.40
2008,06,25,09,21,15.40
2008,06,25,09,22,15.50
2008,06,25,09,23,15.50
2008,06,25,09,24,15.50
2008,06,25,09,25,15.50
2008,06,25,09,26,15.60
2008,06,25,09,27,15.60
2008,06,25,09,28,15.60
2008,06,25,09,29,15.70
2008,06,25,09,30,15.70
2008,06,25,09,31,15.70
2008,06,25,09,32,15.70
2008,06,25,09,33,15.70
2008,06,25,09,34,15.70
2008,06,25,09,35,15.60
2008,06,25,09,36,15.50
2008,06,25,09,37,15.40
2008,06,25,09,38,15.40
2008,06,25,09,39,15.40
2008,06,25,09,40,15.40
2008,06,25,09,41,15.40
2008,06,25,09,42,15.30
2008,06,25,09,43,15.30
2008,06,25,09,44,15.30
2008,06,25,09,45,15.30
2008,06,25,09,46,15.30
2008,06,25,09,47,15.30
2008,06,25,09,48,15.30
2008,06,25,09,49,15.30
2008,06,25,09,50,15.30
2008,06,25,09,51,15.30
2008,06,25,09,52,15.30
2008,06,25,09,53,15.30
2008,06,25,09,54,15.30
2008,06,25,09,55,15.30
2008,06,25,09,56,15.20
2008,06,25,09,57,15.20
2008,06,25,09,58,15.20
2008,06,25,09,59,15.20
2008,06,25,10,00,15.20
2008,06,25,10,01,15.20
2008,06,25,10,02,15.30
2008,06,25,10,03,15.30
2008,06,25,10,04,15.40
2008,06,25,10,05,15.40
2008,06,25,10,06,15.40
2008,06,25,10,07,15.30
2008,06,25,10,08,15.30
2008,06,25,10,09,15.30
2008,06,25,10,10,15.30
2008,06,25,10,11,15.30
2008,06,25,10,12,15.20
2008,06,25,10,13,15.20
2008,06,25,10,14,15.30
2008,06,25,10,15,15.30
2008,06,25,10,16,15.30
2008,06,25,10,17,15.30
2008,06,25,10,18,15.30
2008,06,25,10,19,15.30
2008,06,25,10,20,15.30
2008,06,25,10,21,15.30
2008,06,25,10,22,15.30
2008,06,25,10,23,15.20
2008,06,25,10,24,15.20
2008,06,25,10,25,15.10
2008,06,25,10,26,15.10
2008,06,25,10,27,15.00
2008,06,25,10,28,15.00
2008,06,25,10,29,15.00
2008,06,25,10,30,15.00
2008,06,25,10,31,15.00
2008,06,25,10,32,15.00
2008,06,25,10,33,15.00
2008,06,25,10,34,15.00
2008,06,25,10,35,15.00
2008,06,25,10,36,15.10
2008,06,25,10,37,15.10
2008,06,25,10,38,15.10
2008,06,25,10,39,15.10
2008,06,25,10,40,15.00
2008,06,25,10,41,15.00
2008,06,25,10,42,15.00
2008,06,25,10,43,15.00
2008,06,25,10,44,15.00
2008,06,25,10,45,15.00
2008,06,25,10,46,15.00
2008,06,25,10,47,15.10
2008,06,25,10,48,15.20
2008,06,25,10,49,15.20
2008,06,25,10,50,15.20
2008,06,25,10,51,15.20
2008,06,25,10,52,15.20
2008,06,25,10,53,15.30
2008,06,25,10,54,15.30
2008,06,25,10,55,15.40
2008,06,25,10,56,15.40
2008,06,25,10,57,15.40
2008,06,25,10,58,15.40
2008,06,25,10,59,15.40
2008,06,25,11,00,15.30
2008,06,25,11,01,15.30
2008,06,25,11,02,15.30
2008,06,25,11,03,15.30
2008,06,25,11,04,15.20
2008,06,25,11,05,15.20
2008,06,25,11,06,15.10
2008,06,25,11,07,15.10
2008,06,25,11,08,15.10
2008,06,25,11,09,15.00
2008,06,25,11,10,15.00
2008,06,25,11,11,15.00
2008,06,25,11,12,15.00
2008,06,25,11,13,15.00
2008,06,25,11,14,15.00
2008,06,25,11,15,15.00
2008,06,25,11,16,15.00
2008,06,25,11,17,15.00
2008,06,25,11,18,15.10
2008,06,25,11,19,15.20
2008,06,25,11,20,15.30
2008,06,25,11,21,15.40
2008,06,25,11,22,15.40
2008,06,25,11,23,15.50
2008,06,25,11,24,15.50
2008,06,25,11,25,15.60
2008,06,25,11,26,15.60
2008,06,25,11,27,15.60
2008,06,25,11,28,15.60
2008,06,25,11,29,15.60
2008,06,25,11,30,15.60
2008,06,25,11,31,15.70
2008,06,25,11,32,15.70
2008,06,25,11,33,15.60
2008,06,25,11,34,15.60
2008,06,25,11,35,15.60
2008,06,25,11,36,15.60
2008,06,25,11,37,15.60
2008,06,25,11,38,15.70
2008,06,25,11,39,15.70
2008,06,25,11,40,15.60
2008,06,25,11,41,15.60
2008,06,25,11,42,15.60
2008,06,25,11,43,15.60
2008,06,25,11,44,15.50
2008,06,25,11,45,15.50
2008,06,25,11,46,15.50
2008,06,25,11,47,15.50
2008,06,25,11,48,15.60
2008,06,25,11,49,15.60
2008,06,25,11,50,15.70
2008,06,25,11,51,15.80
2008,06,25,11,52,15.80
2008,06,25,11,53,15.80
2008,06,25,11,54,15.80
2008,06,25,11,55,15.80
2008,06,25,11,56,15.90
2008,06,25,11,57,15.90
2008,06,25,11,58,15.90
2008,06,25,11,59,15.90
2008,06,25,12,00,15.90
2008,06,25,12,01,16.00
2008,06,25,12,02,16.10
2008,06,25,12,03,16.10
2008,06,25,12,04,16.10
2008,06,25,12,05,16.20
2008,06,25,12,06,16.20
2008,06,25,12,07,16.30
2008,06,25,12,08,16.40
2008,06,25,12,09,16.50
2008,06,25,12,10,16.60
2008,06,25,12,11,16.60
2008,06,25,12,12,16.70
2008,06,25,12,13,16.80
2008,06,25,12,14,16.90
2008,06,25,12,15,17.00
2008,06,25,12,16,17.10
2008,06,25,12,17,17.10
2008,06,25,12,18,17.20
2008,06,25,12,19,17.20
2008,06,25,12,20,17.30
2008,06,25,12,21,17.30
2008,06,25,12,22,17.30
2008,06,25,12,23,17.30
2008,06,25,12,24,17.40
2008,06,25,12,25,17.40
2008,06,25,12,26,17.40
2008,06,25,12,27,17.40
2008,06,25,12,28,17.50
2008,06,25,12,29,17.60
2008,06,25,12,30,17.60
2008,06,25,12,31,17.70
2008,06,25,12,32,17.80
2008,06,25,12,33,17.90
2008,06,25,12,34,18.00
2008,06,25,12,35,18.10
2008,06,25,12,36,18.00
2008,06,25,12,37,18.00
2008,06,25,12,38,17.90
2008,06,25,12,39,17.90
2008,06,25,12,40,18.00
2008,06,25,12,41,18.10
2008,06,25,12,42,18.00
2008,06,25,12,43,18.00
2008,06,25,12,44,18.00
2008,06,25,12,45,18.00
2008,06,25,12,46,18.00
2008,06,25,12,47,18.00
2008,06,25,12,48,17.90
2008,06,25,12,49,17.90
2008,06,25,12,50,17.80
2008,06,25,12,51,17.80
2008,06,25,12,52,17.80
2008,06,25,12,53,17.70
2008,06,25,12,54,17.60
2008,06,25,12,55,17.60
2008,06,25,12,56,17.60
2008,06,25,12,57,17.60
2008,06,25,12,58,17.60
2008,06,25,12,59,17.60
2008,06,25,13,00,17.60
2008,06,25,13,01,17.60
2008,06,25,13,02,17.60
2008,06,25,13,03,17.60
2008,06,25,13,04,17.50
2008,06,25,13,05,17.40
2008,06,25,13,06,17.40
2008,06,25,13,07,17.30
2008,06,25,13,08,17.30
2008,06,25,13,09,17.40
2008,06,25,13,10,17.50
2008,06,25,13,11,17.50
2008,06,25,13,12,17.60
2008,06,25,13,13,17.70
2008,06,25,13,14,17.70
2008,06,25,13,15,17.80
2008,06,25,13,16,17.80
2008,06,25,13,17,17.90
2008,06,25,13,18,18.00
2008,06,25,13,19,18.10
2008,06,25,13,20,18.10
2008,06,25,13,21,18.20
2008,06,25,13,22,18.30
2008,06,25,13,23,18.40
2008,06,25,13,24,18.40
2008,06,25,13,25,18.50
2008,06,25,13,26,18.50
2008,06,25,13,27,18.50
2008,06,25,13,28,18.50
2008,06,25,13,29,18.60
2008,06,25,13,30,18.60
2008,06,25,13,31,18.60
2008,06,25,13,32,18.70
2008,06,25,13,33,18.80
2008,06,25,13,34,18.90
2008,06,25,13,35,19.00
2008,06,25,13,36,19.10
2008,06,25,13,37,19.10
2008,06,25,13,38,19.30
2008,06,25,13,39,19.40
2008,06,25,13,40,19.50
2008,06,25,13,41,19.60
2008,06,25,13,42,19.60
2008,06,25,13,43,19.50
2008,06,25,13,44,19.50
2008,06,25,13,45,19.40
2008,06,25,13,46,19.20
2008,06,25,13,47,19.20
2008,06,25,13,48,19.10
2008,06,25,13,49,19.10
2008,06,25,13,50,19.10
2008,06,25,13,51,19.20
2008,06,25,13,52,19.20
2008,06,25,13,53,19.20
2008,06,25,13,54,19.20
2008,06,25,13,55,19.20
2008,06,25,13,56,19.20
2008,06,25,13,57,19.20
2008,06,25,13,58,19.30
2008,06,25,13,59,19.30
2008,06,25,14,00,19.30
2008,06,25,14,01,19.30
2008,06,25,14,02,19.30
2008,06,25,14,03,19.30
2008,06,25,14,04,19.20
2008,06,25,14,05,19.20
2008,06,25,14,06,19.10
2008,06,25,14,07,19.20
2008,06,25,14,08,19.20
2008,06,25,14,09,19.20
2008,06,25,14,10,19.20
2008,06,25,14,11,19.20
2008,06,25,14,12,19.30
2008,06,25,14,13,19.40
2008,06,25,14,14,19.40
2008,06,25,14,15,19.60
2008,06,25,14,16,19.70
2008,06,25,14,17,19.80
2008,06,25,14,18,19.80
2008,06,25,14,19,19.80
2008,06,25,14,20,19.70
2008,06,25,14,21,19.70
2008,06,25,14,22,19.80
2008,06,25,14,23,19.80
2008,06,25,14,24,19.90
2008,06,25,14,25,19.90
2008,06,25,14,26,19.80
2008,06,25,14,27,19.70
2008,06,25,14,28,19.70
2008,06,25,14,29,19.70
2008,06,25,14,30,19.60
2008,06,25,14,31,19.60
2008,06,25,14,32,19.50
2008,06,25,14,33,19.40
2008,06,25,14,34,19.40
2008,06,25,14,35,19.40
2008,06,25,14,36,19.50
2008,06,25,14,37,19.60
2008,06,25,14,38,19.60
2008,06,25,14,39,19.70
2008,06,25,14,40,19.70
2008,06,25,14,41,19.80
2008,06,25,14,42,19.90
2008,06,25,14,43,20.00
2008,06,25,14,44,20.10
2008,06,25,14,45,20.10
2008,06,25,14,46,20.10
2008,06,25,14,47,20.10
2008,06,25,14,48,20.00
2008,06,25,14,49,20.10
2008,06,25,14,50,20.20
2008,06,25,14,51,20.20
2008,06,25,14,52,20.30
2008,06,25,14,53,20.20
2008,06,25,14,54,20.10
2008,06,25,14,55,20.10
2008,06,25,14,56,20.10
2008,06,25,14,57,20.20
2008,06,25,14,58,20.20
2008,06,25,14,59,20.30
2008,06,25,15,00,20.20
2008,06,25,15,01,20.10
2008,06,25,15,02,20.10
2008,06,25,15,03,20.20
2008,06,25,15,04,20.20
2008,06,25,15,05,20.30
2008,06,25,15,06,20.30
2008,06,25,15,07,20.40
2008,06,25,15,08,20.40
2008,06,25,15,09,20.40
2008,06,25,15,10,20.30
2008,06,25,15,11,20.30
2008,06,25,15,12,20.30
2008,06,25,15,13,20.30
2008,06,25,15,14,20.20
2008,06,25,15,15,20.30
2008,06,25,15,16,20.30
2008,06,25,15,17,20.40
2008,06,25,15,18,20.40
2008,06,25,15,19,20.50
2008,06,25,15,20,20.60
2008,06,25,15,21,20.70
2008,06,25,15,22,20.60
2008,06,25,15,23,20.60
2008,06,25,15,24,20.50
2008,06,25,15,25,20.50
2008,06,25,15,26,20.50
2008,06,25,15,27,20.50
2008,06,25,15,28,20.40
2008,06,25,15,29,20.50
2008,06,25,15,30,20.50
2008,06,25,15,31,20.50
2008,06,25,15,32,20.70
2008,06,25,15,33,20.70
2008,06,25,15,34,20.80
2008,06,25,15,35,20.90
2008,06,25,15,36,20.90
2008,06,25,15,37,21.10
2008,06,25,15,38,21.10
2008,06,25,15,39,21.10
2008,06,25,15,40,21.00
2008,06,25,15,41,20.90
2008,06,25,15,42,20.90
2008,06,25,15,43,20.80
2008,06,25,15,44,20.90
2008,06,25,15,45,20.90
2008,06,25,15,46,20.90
2008,06,25,15,47,20.80
2008,06,25,15,48,20.80
2008,06,25,15,49,20.80
2008,06,25,15,50,20.70
2008,06,25,15,51,20.70
2008,06,25,15,52,20.60
2008,06,25,15,53,20.50
2008,06,25,15,54,20.50
2008,06,25,15,55,20.40
2008,06,25,15,56,20.40
2008,06,25,15,57,20.40
2008,06,25,15,58,20.40
2008,06,25,15,59,20.50
2008,06,25,16,00,20.70
2008,06,25,16,01,20.60
2008,06,25,16,02,20.60
2008,06,25,16,03,20.60
2008,06,25,16,04,20.70
2008,06,25,16,05,20.70
2008,06,25,16,06,20.70
2008,06,25,16,07,20.70
2008,06,25,16,08,20.70
2008,06,25,16,09,20.70
2008,06,25,16,10,20.60
2008,06,25,16,11,20.50
2008,06,25,16,12,20.40
2008,06,25,16,13,20.40
2008,06,25,16,14,20.40
2008,06,25,16,15,20.50
2008,06,25,16,16,20.60
2008,06,25,16,17,20.60
2008,06,25,16,18,20.70
2008,06,25,16,19,20.70
2008,06,25,16,20,20.60
2008,06,25,16,21,20.60
2008,06,25,16,22,20.60
2008,06,25,16,23,20.70
2008,06,25,16,24,20.70
2008,06,25,16,25,20.80
2008,06,25,16,26,20.80
2008,06,25,16,27,20.90
2008,06,25,16,28,20.90
2008,06,25,16,29,20.80
2008,06,25,16,30,20.70
2008,06,25,16,31,20.70
2008,06,25,16,32,20.70
2008,06,25,16,33,20.70
2008,06,25,16,34,20.70
2008,06,25,16,35,20.70
2008,06,25,16,36,20.70
2008,06,25,16,37,20.80
2008,06,25,16,38,20.70
2008,06,25,16,39,20.70
2008,06,25,16,40,20.80
2008,06,25,16,41,20.80
2008,06,25,16,42,20.80
2008,06,25,16,43,20.80
2008,06,25,16,44,20.80
2008,06,25,16,45,20.80
2008,06,25,16,46,20.90
2008,06,25,16,47,21.10
2008,06,25,16,48,21.10
2008,06,25,16,49,21.10
2008,06,25,16,50,21.00
2008,06,25,16,51,21.10
2008,06,25,16,52,21.10
2008,06,25,16,53,21.10
2008,06,25,16,54,21.10
2008,06,25,16,55,21.10
2008,06,25,16,56,21.20
2008,06,25,16,57,21.10
2008,06,25,16,58,21.10
2008,06,25,16,59,21.10
2008,06,25,17,00,21.20
2008,06,25,17,01,21.20
2008,06,25,17,02,21.20
2008,06,25,17,03,21.20
2008,06,25,17,04,21.20
2008,06,25,17,05,21.20
2008,06,25,17,06,21.20
2008,06,25,17,07,21.20
2008,06,25,17,08,21.20
2008,06,25,17,09,21.10
2008,06,25,17,10,21.10
2008,06,25,17,11,20.90
2008,06,25,17,12,20.90
2008,06,25,17,13,20.90
2008,06,25,17,14,20.90
2008,06,25,17,15,21.00
2008,06,25,17,16,21.00
2008,06,25,17,17,21.10
2008,06,25,17,18,21.10
2008,06,25,17,19,21.20